This is the latest recevied weather packets stored in our database for station/object N7ZAP. If no packets are shown the sender has not sent any weather packets the latest 10 day(s).
| Time | Temp. | Humidity | Pressure | Rain* | Wind** | Luminosity | Snow |
|---|---|---|---|---|---|---|---|
| 1788446934 | 24.44° C | 37% | 1021.9 hPa | 0 mm | - | - | - |
| 1788446630 | 23.89° C | 41% | 1022 hPa | 0 mm | - | - | - |
| 1788446324 | 22.78° C | 40% | 1021.7 hPa | 0 mm | - | - | - |
| 1788446022 | 22.78° C | 40% | 1021.7 hPa | 0 mm | - | - | - |
| 1788445722 | 23.33° C | 37% | 1021.7 hPa | 0 mm | - | - | - |
| 1788445418 | 23.33° C | 38% | 1022 hPa | 0 mm | - | - | - |
| 1788445113 | 23.89° C | 35% | 1021.8 hPa | 0 mm | - | - | - |
| 1788444809 | 23.33° C | 38% | 1021.9 hPa | 0 mm | - | - | - |
| 1788444504 | 23.33° C | 37% | 1021.8 hPa | 0 mm | - | - | - |
| 1788444199 | 22.78° C | 38% | 1022 hPa | 0 mm | - | - | - |
| 1788443895 | 21.67° C | 38% | 1021.7 hPa | 0 mm | - | - | - |
| 1788443590 | 21.11° C | 40% | 1021.7 hPa | 0 mm | - | - | - |
| 1788443289 | 20.56° C | 41% | 1021.8 hPa | 0 mm | - | - | - |
| 1788442985 | 19.44° C | 46% | 1021.8 hPa | 0 mm | - | - | - |
| 1788442682 | 18.89° C | 46% | 1021.3 hPa | 0 mm | - | - | - |
| 1788442379 | 18.89° C | 48% | 1021.6 hPa | 0 mm | - | - | - |
| 1788442078 | 18.89° C | 46% | 1021.4 hPa | 0 mm | - | - | - |
| 1788441774 | 18.89° C | 48% | 1021.4 hPa | 0 mm | - | - | - |
| 1788441469 | 18.89° C | 47% | 1021.2 hPa | 0 mm | - | - | - |
| 1788441168 | 18.89° C | 47% | 1020.9 hPa | 0 mm | - | - | - |
| 1788440863 | 18.89° C | 46% | 1020.9 hPa | 0 mm | - | - | - |
| 1788440557 | 18.89° C | 47% | 1021 hPa | 0 mm | - | - | - |
| 1788440256 | 18.89° C | 48% | 1021 hPa | 0 mm | - | - | - |
| 1788439951 | 18.89° C | 45% | 1020.7 hPa | 0 mm | - | - | - |
| 1788439651 | 19.44° C | 46% | 1020.7 hPa | 0 mm | - | - | - |
* Rain latest hour (hover to see other rain measurements)
** Current wind speed in m/s (hover to see current wind gust speed)